NOAA 16 DEB, 41081

Orbit data source: Space-Track

NOAA 16 DEB, 41081 is space debris in SSO originally from a launch on Thu, 21 Sep 2000 UTC launched from the Air Force Western Test Range (AFWTR). Debris objects in space refer to the collection of defunct objects orbiting the Earth. Examples of debris include non-operational satellites, rocket bodies, and fragments generated from explosions, collisions, or faulty payload assembly.

Loading next visibility...
Identifier
41081, 2000-055AQ
Orbit
SSO
Country
Flag of USUS
Related business
Manufacturer
Unknown
Mission
Spacecraft
Bus & Motor
Unknown
Mass
Unknown
Launch date (UTC)
2000-09-21 (25 years ago)
Launch vehicle
Unknown
Launch site
Air Force Western Test Range (AFWTR)
Object type
Payload
Rocket body
Debris
Shape & HBR
Unknown shape, 0.1 m
Radar Cross Section
Small (<0.1 m²)

Expand to show TLE details & history
Last TLE update: 9 hours ago

TLE from 9 hours ago
0 NOAA 16 DEB
1 41081U 00055AQ  25308.87856655  .00001509  00000-0  66626-3 0  9996
2 41081  99.2209 164.7887 0136662 228.4770 130.4615 14.20029680513362
Epoch: 2025-11-04T21:05Z
TLE epoch observation values (Epoch: 2025-11-04T21:05:08.149Z)
Latitude
-0.00008°
Longitude
164.14549°
Altitude
892.815 km
Speed
7.372 km/s
True Right ascension
10h 59m 09s
True Declination
0° 00' 00"
Sunlit
Object was in daylight at epoch
Visualization orbit readout
Latitude
Unknown
Longitude
Unknown
Altitude
Unknown
Speed
Unknown
Apparent Right ascension
Unknown
Apparent Declination
Unknown
Sunlit
N/A
Visualization observer readout
Local Sidereal Time
02:31:55
Azimuth
Unknown
Elevation
Unknown
Doppler factor
Unknown
Orbital elements
Apogee altitude
920.84 km
Perigee altitude
724.031 km
Semi-major axis
7,200.572 km
Eccentricity
0.01367
Inclination
99.2209°
RAAN
164.7887°
Arg. of periapsis
228.477°
True anomaly
131.63985°
Mean anomaly
130.4615°
Eccentric anomaly
131.05198°
Mean motion
3.55216 °/min
Orbital period
101.35 mins
BSTAR
0.00066626
Loading maneuver chart data...
Computing Atmospheric mass density...
Loading historical data...
Loading historical data...
Loading historical data...
Loading historical data...
Loading historical data...
Loading historical data...
Loading historical data...

Documentation

Showing up to 5 results
|